Temp
76 76 74 75 78 73 73 72 72 71 73 71 71 71 71 70 70 70 70 69 70 71 68 71 70 74 71 73 72 71 69 68
74 75 75 75 73 76 75 73 72 71 73 72 72 71 70 70 70 69 68 68 67 68 67 66 67 69 69 69 68 68 67 67
75 75 75 74 74 77 75 72 71 71 70 72 70 71 71 71 70 69 69 67 66 67 66 65 65 67 67 67 66 66 66 66
74 73 73 72 73 72 73 71 72 72 70 71 71 71 71 70 70 70 69 67 66 65 65 64 65 65 66 66 65 65 65 66
72 76 72 74 76 73 68 71 71 70 70 70 71 72 71 70 71 69 69 67 65 65 64 63 64 65 65 64 64 64 64 65
73 73 71 72 70 70 69 73 70 70 71 71 72 71 70 70 71 69 69 67 66 65 64 63 64 64 64 64 63 63 63 64
70 73 73 72 72 70 70 65 69 69 70 70 70 69 69 70 69 68 69 67 67 66 65 65 66 65 64 63 63 64 63 62
72 72 74 74 70 67 66 65 66 67 67 67 66 65 68 68 67 67 68 67 68 66 65 65 65 64 63 63 64 63 63 62
70 71 72 71 67 65 65 63 62 66 65 65 64 66 65 65 67 67 67 67 68 66 65 65 64 64 64 64 63 62 61 62
69 72 69 67 68 66 65 63 62 66 68 65 65 65 64 66 66 67 68 68 67 67 65 64 64 63 63 63 62 60 61 61
69 69 68 69 65 65 66 63 62 65 65 64 62 63 63 62 64 65 67 68 67 67 66 65 64 63 62 61 61 60 59 58
68 69 67 69 68 65 64 63 62 64 65 65 64 61 61 62 64 64 65 67 67 66 66 65 64 63 62 61 61 60 59 58
65 68 69 65 63 61 60 61 63 64 65 65 64 62 61 63 63 63 64 64 66 66 65 64 63 62 62 61 60 60 59 59
63 63 62 61 65 64 64 63 63 64 65 65 63 62 62 62 62 62 61 62 63 64 65 64 62 62 61 61 61 60 60 59
61 59 60 65 65 66 65 63 62 63 64 64 64 63 64 63 63 61 61 61 61 62 62 62 61 62 62 62 61 61 60 59
58 58 63 64 65 63 62 62 61 62 63 62 62 64 65 63 64 63 61 61 61 62 63 62 62 63 63 62 61 61 61 60
59 62 63 61 61 61 61 61 61 61 61 62 62 62 63 62 61 61 61 61 62 61 62 61 62 63 63 62 61 62 61 61
61 61 60 59 60 61 61 61 61 61 62 63 62 61 62 62 62 61 61 61 62 61 61 62 63 63 63 63 62 62 61 61
61 60 59 59 60 61 60 61 62 61 62 62 62 61 61 61 61 61 61 61 61 62 63 63 63 63 63 62 62 62 62 61
61 59 59 59 60 61 60 61 62 62 62 62 61 61 61 60 60 60 61 61 62 63 64 65 65 64 64 63 63 63 62 62
MSLP
1004.42 1004.77 1004.73 1004.62 1004.26 1004.74 1004.80 1005.09 1005.52 1005.83 1006.49 1006.83 1007.18 1007.51 1007.70 1007.95 1008.19 1008.49 1008.82 1009.27 1009.59 1009.94 1010.64 1011.06 1011.38 1011.57 1011.82 1011.95 1012.20 1012.37 1012.65 1012.86
1004.25 1004.39 1004.03 1004.20 1004.20 1003.85 1004.09 1004.62 1005.03 1005.39 1005.66 1005.97 1006.31 1006.81 1007.06 1007.30 1007.48 1008.02 1008.45 1008.86 1009.76 1010.18 1010.40 1010.87 1011.20 1011.23 1011.57 1011.86 1012.07 1012.23 1012.49 1012.72
1003.51 1003.38 1003.42 1003.48 1003.83 1003.27 1003.31 1003.65 1004.00 1004.33 1004.98 1005.39 1005.70 1005.81 1006.03 1006.31 1006.93 1007.41 1008.00 1008.40 1009.04 1009.62 1010.11 1010.49 1010.98 1011.13 1011.21 1011.71 1011.89 1012.12 1012.32 1012.50
1002.86 1002.93 1002.64 1003.11 1003.14 1002.89 1002.35 1002.72 1002.78 1003.59 1003.88 1004.17 1004.33 1004.88 1005.27 1005.96 1006.21 1006.52 1007.46 1008.02 1008.73 1009.36 1009.78 1010.57 1010.60 1011.16 1011.32 1011.46 1011.93 1012.10 1012.17 1012.30
1002.42 1001.91 1002.14 1002.03 1001.56 1001.52 1001.65 1001.80 1002.27 1002.65 1002.72 1003.05 1003.55 1003.96 1004.55 1004.96 1005.66 1006.26 1006.18 1006.83 1007.91 1008.96 1009.56 1010.46 1010.80 1011.07 1011.20 1011.39 1011.74 1011.91 1012.17 1012.18
1001.37 1001.39 1001.53 1001.22 1001.07 1001.03 1000.84 1000.89 1001.29 1001.46 1001.76 1002.01 1002.75 1003.24 1003.77 1004.12 1004.43 1005.07 1005.75 1006.49 1007.32 1008.35 1008.95 1009.38 1009.74 1009.97 1010.56 1011.19 1011.48 1011.77 1011.95 1012.07
1000.88 1000.70 1000.40 1000.17 999.98 999.98 999.96 1000.29 1000.31 1000.37 1000.74 1001.41 1001.87 1002.56 1003.09 1003.52 1004.26 1004.85 1005.64 1006.40 1006.77 1007.58 1008.14 1008.60 1008.88 1010.01 1010.37 1010.55 1011.15 1011.38 1011.64 1011.83
1000.22 1000.07 999.66 999.32 999.27 999.29 999.34 999.36 999.55 999.77 1000.35 1001.10 1001.75 1002.12 1002.70 1003.06 1003.71 1004.49 1005.25 1005.81 1006.34 1006.97 1007.67 1008.24 1009.04 1009.88 1010.21 1010.40 1010.77 1011.10 1011.54 1011.78
999.80 999.51 999.11 998.85 998.86 998.86 998.70 998.94 998.98 999.77 1000.34 1000.83 1001.65 1001.74 1002.43 1002.92 1003.54 1004.31 1004.77 1005.34 1005.79 1006.36 1007.34 1007.81 1008.39 1009.47 1009.75 1010.13 1010.54 1011.17 1011.55 1011.61
999.49 998.94 998.76 998.72 998.55 998.27 998.12 998.09 998.37 998.91 999.34 1000.08 1000.44 1001.27 1002.23 1002.68 1003.53 1004.11 1004.28 1004.66 1005.37 1006.04 1006.86 1007.85 1008.13 1009.10 1009.75 1010.04 1010.52 1011.01 1011.24 1011.38
998.76 998.54 998.31 997.99 997.97 997.69 997.55 997.56 997.92 998.63 999.27 999.77 1000.58 1001.26 1002.24 1002.86 1003.32 1003.75 1004.15 1004.52 1005.20 1005.63 1006.18 1007.17 1008.09 1008.77 1009.32 1009.84 1010.19 1010.55 1010.90 1011.23
998.11 998.05 998.01 997.50 997.07 996.98 996.79 997.04 997.61 998.13 998.74 999.39 1000.05 1000.51 1001.45 1001.99 1002.72 1003.23 1003.61 1004.41 1005.29 1005.87 1006.13 1006.94 1007.83 1008.44 1009.09 1009.45 1009.79 1010.13 1010.52 1010.85
997.69 997.50 997.28 997.10 997.20 996.86 996.66 996.93 997.37 997.90 998.42 998.99 999.88 1000.71 1001.30 1001.81 1002.47 1003.30 1004.02 1004.81 1005.32 1005.90 1006.23 1006.88 1007.55 1008.25 1008.75 1009.11 1009.45 1009.82 1010.17 1010.42
997.23 997.15 997.29 997.33 997.13 997.04 997.03 997.02 997.47 998.04 998.50 998.98 999.56 1000.39 1001.37 1001.91 1002.68 1003.47 1004.33 1005.03 1005.81 1006.04 1006.25 1006.86 1007.52 1008.00 1008.53 1008.87 1009.15 1009.50 1009.79 1009.98
997.01 997.13 997.40 997.45 997.46 997.30 997.18 997.18 997.85 998.28 998.66 999.22 999.69 1000.38 1001.08 1001.75 1002.63 1003.59 1004.23 1004.93 1005.75 1006.03 1006.30 1006.98 1007.43 1007.94 1008.43 1008.61 1008.92 1009.17 1009.46 1009.68
996.69 997.11 997.42 997.55 997.59 997.51 997.48 997.60 998.15 998.66 999.32 999.74 1000.08 1000.64 1001.34 1002.27 1002.76 1003.57 1004.36 1005.17 1005.76 1006.14 1006.53 1007.03 1007.59 1008.00 1008.23 1008.44 1008.75 1008.95 1009.17 1009.34
997.00 997.34 997.62 997.89 997.84 997.93 998.13 998.17 998.85 999.31 999.85 1000.04 1000.48 1001.05 1001.64 1002.63 1003.49 1004.06 1004.85 1005.46 1005.86 1006.31 1006.81 1007.30 1007.58 1007.82 1008.08 1008.30 1008.48 1008.62 1008.77 1009.02
997.05 997.50 997.91 998.29 998.22 998.44 998.70 998.89 999.34 999.84 1000.10 1000.43 1001.03 1001.63 1002.23 1003.02 1003.77 1004.55 1005.15 1005.66 1006.02 1006.51 1006.91 1007.17 1007.42 1007.61 1007.79 1007.98 1008.06 1008.27 1008.50 1008.64
997.14 997.74 998.12 998.56 998.75 998.97 999.22 999.52 999.90 1000.33 1000.64 1001.13 1001.63 1002.27 1002.83 1003.48 1004.16 1004.80 1005.10 1005.53 1006.04 1006.46 1006.78 1007.02 1007.23 1007.43 1007.51 1007.66 1007.77 1008.05 1008.09 1008.31
997.32 998.02 998.36 998.87 999.29 999.59 999.77 1000.02 1000.33 1000.92 1001.27 1001.67 1002.23 1002.84 1003.42 1003.99 1004.53 1004.93 1005.25 1005.69 1006.09 1006.43 1006.69 1006.85 1006.98 1007.11 1007.22 1007.34 1007.43 1007.43 1007.74 1007.92
Wind_Speed
6 8 9 12 10 4 13 13 13 13 12 7 6 7 6 7 11 11 8 7 7 7 5 5 4 9 4 5 4 3 3 3
9 10 10 9 8 12 9 13 13 13 9 9 9 8 8 9 10 11 8 6 6 6 5 5 4 4 4 4 3 3 4 4
10 10 7 8 9 13 13 11 14 14 13 9 9 11 11 11 9 10 9 9 8 6 5 5 4 3 4 4 4 4 4 4
10 8 9 7 11 12 12 13 16 12 13 14 12 11 11 9 9 10 12 8 6 6 6 5 4 3 3 3 3 4 4 4
13 11 9 11 11 9 11 14 12 15 17 15 12 11 10 10 9 10 17 13 10 8 6 4 3 3 5 2 3 2 3 3
9 11 10 10 9 10 9 8 12 15 15 13 10 10 9 9 10 9 15 14 12 8 8 6 7 7 5 3 3 3 4 3
10 10 10 10 10 10 10 9 12 15 14 10 11 10 9 8 7 8 12 12 13 10 8 8 7 3 2 5 2 3 3 3
9 11 12 11 10 9 10 7 10 9 6 6 4 5 7 6 7 8 13 10 12 10 8 5 5 4 4 3 3 2 2 2
10 11 12 12 10 10 10 5 7 8 5 7 5 9 6 6 6 11 13 11 12 11 6 7 7 6 5 5 3 3 3 3
12 15 10 11 13 11 10 9 8 9 8 5 4 6 3 4 6 8 11 12 10 11 8 7 8 5 5 4 4 3 3 3
15 11 11 12 10 12 8 8 8 7 6 7 5 7 5 4 5 5 6 9 10 10 10 9 7 5 5 5 5 5 3 2
14 12 11 14 13 7 8 7 8 8 10 7 10 3 6 3 5 4 6 8 8 8 8 8 7 4 5 4 4 3 3 3
13 14 13 11 8 8 8 5 8 10 9 10 8 6 4 5 7 8 7 5 5 6 8 8 6 4 4 5 4 4 3 3
10 9 6 6 5 1 4 8 7 10 10 10 11 12 11 9 9 7 6 4 4 6 7 6 5 4 4 4 4 5 5 3
8 5 1 3 3 5 6 9 8 7 9 9 10 12 12 13 10 6 6 4 3 4 5 5 3 4 5 4 4 4 4 4
3 3 3 4 6 6 7 10 10 8 8 9 9 10 8 9 9 7 5 4 5 5 5 5 5 5 4 4 2 3 4 3
4 6 5 4 6 7 7 10 9 9 9 9 9 9 9 9 8 7 5 5 4 5 5 5 5 4 4 4 3 4 3 4
8 6 6 4 6 7 8 8 10 8 9 9 8 8 8 9 8 8 7 6 5 6 5 5 5 4 4 4 3 3 4 3
10 7 6 6 6 7 8 10 10 9 10 9 10 8 8 7 7 6 6 5 6 6 5 4 3 4 4 3 4 4 5 4
12 8 9 8 7 7 8 8 10 8 8 9 9 8 7 7 6 6 5 6 5 5 4 2 3 4 4 4 4 4 5 6
Wind_Direction
224 249 233 229 232 208 204 205 200 193 203 189 196 198 199 200 201 195 184 177 185 183 181 200 195 220 217 214 217 197 197 205
247 242 244 236 225 232 215 206 203 210 195 201 199 198 199 204 202 193 182 178 174 186 185 190 199 199 201 199 200 192 203 221
257 230 232 234 236 236 220 189 203 201 199 201 201 207 206 202 197 193 185 179 186 178 188 179 205 197 193 196 206 198 207 219
257 255 244 215 217 231 227 204 209 193 202 203 204 206 206 200 199 188 189 183 178 190 180 205 207 188 195 201 188 205 213 210
238 247 235 235 251 248 210 209 200 196 203 206 206 206 197 197 198 192 186 175 177 168 182 198 211 187 217 174 202 194 221 228
248 244 237 243 240 243 233 205 192 203 207 204 205 202 197 200 192 183 183 175 162 168 184 177 190 192 173 190 182 190 220 216
256 258 258 260 262 262 265 196 204 203 205 198 195 189 196 193 184 172 174 171 177 186 179 192 197 185 213 169 174 178 204 231
262 267 273 274 268 255 249 222 216 194 171 165 172 170 189 173 169 163 163 182 182 176 184 162 152 166 172 154 177 178 221 253
272 269 272 281 274 267 258 223 206 165 166 162 174 196 175 163 161 155 173 179 180 182 162 165 155 184 180 175 128 183 226 216
266 264 266 264 263 266 259 230 175 180 176 168 150 136 141 139 141 171 176 181 165 170 172 187 159 148 168 159 155 174 227 196
259 266 262 273 261 260 262 218 181 178 153 124 90 88 93 121 164 159 174 164 169 165 160 154 157 161 173 170 173 174 192 186
251 255 268 265 267 269 256 214 179 159 155 149 158 140 145 156 159 144 150 146 160 164 143 139 154 152 168 180 170 165 157 186
250 249 257 279 290 278 263 182 148 149 147 143 139 119 104 124 122 127 112 115 147 137 142 149 143 152 166 169 159 176 181 175
251 259 286 297 306 268 137 125 121 137 140 143 137 135 135 128 128 125 123 120 126 129 132 129 142 146 161 181 182 182 190 188
260 254 228 260 200 152 127 114 106 113 125 127 131 136 133 128 128 126 132 110 117 134 118 136 136 157 185 177 178 199 191 193
232 138 142 153 140 102 107 112 110 102 109 108 106 113 118 123 137 140 123 125 132 146 132 139 158 181 182 184 184 199 202 212
155 149 133 125 102 90 104 102 94 101 110 109 102 108 118 124 114 113 122 125 134 140 150 154 173 180 183 190 201 215 193 206
152 132 122 95 94 97 87 94 107 111 104 106 109 107 108 117 123 126 130 138 132 137 139 157 178 192 196 197 212 211 221 221
146 127 107 103 90 93 98 102 104 99 105 109 109 106 107 105 112 128 134 123 136 143 153 162 185 213 218 201 230 214 219 215
138 126 115 104 102 103 106 105 104 104 104 103 101 104 106 109 115 129 135 129 135 132 147 167 239 246 220 209 237 219 213 207